sat.trackr.live / text

‹ back to catalog

COSMOS 2591

NORAD 65267 · 2025-182A

PAYLOAD ACTIVE UNKNOWN

§ Identity

Operator
Country
CIS
Launch date
2025-08-21
Launch site
PLMSC
Launch vehicle
Mass (kg)
RCS (m²)

External: N2YO · Heavens-Above · Gunter

§ Orbital elements

Epoch: 2026-05-25T02:26:42.048384Z

Period
90.20 min
Inclination
96.5879°
Eccentricity
0.0003491
Mean motion
15.96381169 rev/d
Perigee alt
282.1 km
Apogee alt
286.8 km
Semi-major
6,662.6 km
B*
2.0015e-4
RAAN
76.7625°
Arg perigee
189.9402°
Mean anomaly
170.1808°
Rev number
4,401

§ Raw data

COSMOS 25911 65267U 25182A   26145.10187556  .00082476  44462-5  20015-3 0  99982 65267  96.5879  76.7625 0003491 189.9402 170.1808 15.96381169 44018

JSON: /api/v1/satellites/65267 · /tle

For live sub-satellite position, see the globe view (requires WebGL).

§ Visibility from observer

Set your observer location to see the next 7 days of passes ≥ 10°. The values pass through the URL so the page stays shareable.

No JS? Fill the form by hand. The geolocation button needs JavaScript.